EZY8635 EDDH-EGKK

Flight info

Callsign EZY8635
Flight time 1h 19m
Altitude 38000
Route WSN5C WSN N125 ONTAZ DCT GALSO Q63 ARREK Y4 TEBRA
Aircraft A320/M-SDE3FGHIRWY/LB1

Departure

Time 2026-05-06 11:05
Airport Hamburg Helmut Schmidt Airport (EDDH)

Arrival

Time 2026-05-06 12:24
Airport London Gatwick Airport (EGKK)
Time Latitude Longitude Altitude Speed Heading
2026-05-06 10:33 53.62943 10.00286 49 ft 0 kts 122°
2026-05-06 10:52 53.62946 10.00279 48 ft 3 kts 122°
2026-05-06 10:52 53.62960 10.00241 48 ft 4 kts 123°
2026-05-06 10:52 53.62972 10.00211 44 ft 4 kts 134°
2026-05-06 10:52 53.62992 10.00189 46 ft 4 kts 184°
2026-05-06 10:53 53.63006 10.00195 44 ft 0 kts 212°
2026-05-06 10:56 53.62991 10.00179 46 ft 5 kts 212°
2026-05-06 10:56 53.62969 10.00156 48 ft 3 kts 212°
2026-05-06 10:57 53.62955 10.00140 48 ft 4 kts 213°
2026-05-06 10:57 53.62933 10.00114 48 ft 3 kts 214°
2026-05-06 10:57 53.62918 10.00099 48 ft 2 kts 212°
2026-05-06 10:57 53.62911 10.00092 48 ft 1 kts 210°
2026-05-06 10:58 53.62909 10.00089 46 ft 0 kts 210°
2026-05-06 10:58 53.62895 10.00075 48 ft 10 kts 213°
2026-05-06 10:58 53.62849 10.00010 48 ft 7 kts 220°
2026-05-06 10:58 53.62800 9.99957 46 ft 10 kts 209°
2026-05-06 10:59 53.62738 9.99900 46 ft 10 kts 208°
2026-05-06 10:59 53.62679 9.99845 43 ft 9 kts 211°
2026-05-06 10:59 53.62642 9.99770 47 ft 8 kts 248°
2026-05-06 10:59 53.62630 9.99687 47 ft 9 kts 258°
2026-05-06 11:00 53.62608 9.99495 47 ft 24 kts 259°
2026-05-06 11:00 53.62578 9.99227 45 ft 23 kts 259°
2026-05-06 11:00 53.62546 9.98951 45 ft 23 kts 259°
2026-05-06 11:00 53.62514 9.98671 47 ft 25 kts 260°
2026-05-06 11:01 53.62484 9.98401 47 ft 17 kts 259°
2026-05-06 11:01 53.62459 9.98214 44 ft 15 kts 252°
2026-05-06 11:01 53.62418 9.98072 47 ft 12 kts 237°
2026-05-06 11:01 53.62366 9.97960 47 ft 15 kts 230°
2026-05-06 11:02 53.62284 9.97796 47 ft 22 kts 230°
2026-05-06 11:02 53.62169 9.97564 47 ft 29 kts 230°
2026-05-06 11:02 53.62039 9.97298 47 ft 29 kts 230°
2026-05-06 11:02 53.61912 9.97042 47 ft 28 kts 230°
2026-05-06 11:03 53.61788 9.96793 47 ft 27 kts 230°
2026-05-06 11:03 53.61696 9.96604 47 ft 13 kts 233°
2026-05-06 11:03 53.61698 9.96489 47 ft 8 kts 297°
2026-05-06 11:03 53.61724 9.96441 47 ft 4 kts 325°
2026-05-06 11:04 53.61774 9.96422 46 ft 12 kts
2026-05-06 11:04 53.61880 9.96482 43 ft 20 kts 43°
2026-05-06 11:04 53.61998 9.96719 42 ft 42 kts 50°
2026-05-06 11:04 53.62351 9.97433 40 ft 113 kts 50°
2026-05-06 11:05 53.62975 9.98693 119 ft 159 kts 50°
2026-05-06 11:05 53.63660 10.00080 970 ft 151 kts 50°
2026-05-06 11:05 53.64342 10.01470 1737 ft 162 kts 51°
2026-05-06 11:05 53.65111 10.03045 2304 ft 186 kts 51°
2026-05-06 11:06 53.65941 10.04742 3238 ft 193 kts 53°
2026-05-06 11:06 53.66805 10.06503 4184 ft 198 kts 52°
2026-05-06 11:06 53.67722 10.08291 5008 ft 207 kts 44°
2026-05-06 11:06 53.69001 10.09502 5921 ft 218 kts 18°
2026-05-06 11:07 53.70554 10.09618 6767 ft 237 kts 350°
2026-05-06 11:07 53.72107 10.08300 7358 ft 269 kts 317°
2026-05-06 11:07 53.73053 10.05473 8057 ft 289 kts 282°
2026-05-06 11:07 53.72935 10.02101 8979 ft 292 kts 251°
2026-05-06 11:08 53.72142 9.98950 10037 ft 292 kts 242°
2026-05-06 11:08 53.71111 9.95863 10533 ft 314 kts 238°
2026-05-06 11:08 53.69927 9.92638 11105 ft 330 kts 237°
2026-05-06 11:08 53.68698 9.89299 11940 ft 337 kts 238°
2026-05-06 11:09 53.67485 9.85887 12795 ft 342 kts 239°
2026-05-06 11:09 53.66348 9.82331 13618 ft 347 kts 245°
2026-05-06 11:09 53.65364 9.78593 14369 ft 350 kts 246°
2026-05-06 11:09 53.64417 9.74856 15159 ft 352 kts 245°
2026-05-06 11:10 53.63467 9.71037 15952 ft 354 kts 246°
2026-05-06 11:10 53.62516 9.67204 16731 ft 356 kts 246°
2026-05-06 11:10 53.61555 9.63339 17500 ft 359 kts 245°
2026-05-06 11:10 53.60581 9.59453 18250 ft 362 kts 245°
2026-05-06 11:11 53.59586 9.55522 18864 ft 367 kts 244°
2026-05-06 11:11 53.58576 9.51547 19514 ft 371 kts 244°
2026-05-06 11:11 53.57563 9.47535 20141 ft 374 kts 245°
2026-05-06 11:11 53.56534 9.43485 20770 ft 377 kts 245°
2026-05-06 11:12 53.55496 9.39435 21390 ft 379 kts 245°
2026-05-06 11:12 53.54445 9.35348 21974 ft 382 kts 245°
2026-05-06 11:12 53.53385 9.31227 22567 ft 385 kts 244°
2026-05-06 11:12 53.52316 9.27075 23187 ft 389 kts 245°
2026-05-06 11:13 53.51240 9.22893 23710 ft 391 kts 245°
2026-05-06 11:13 53.50157 9.18685 24181 ft 395 kts 245°
2026-05-06 11:13 53.49063 9.14432 24644 ft 397 kts 245°
2026-05-06 11:13 53.47958 9.10159 25112 ft 400 kts 244°
2026-05-06 11:14 53.46843 9.05859 25556 ft 403 kts 244°
2026-05-06 11:14 53.45719 9.01534 26003 ft 406 kts 244°
2026-05-06 11:14 53.44588 8.97175 26444 ft 409 kts 244°
2026-05-06 11:14 53.43447 8.92789 26879 ft 412 kts 244°
2026-05-06 11:15 53.42296 8.88378 27320 ft 414 kts 244°
2026-05-06 11:15 53.41132 8.83935 27737 ft 417 kts 244°
2026-05-06 11:15 53.39960 8.79468 28117 ft 421 kts 244°
2026-05-06 11:15 53.38792 8.75013 28531 ft 424 kts 244°
2026-05-06 11:16 53.37604 8.70481 28963 ft 426 kts 244°
2026-05-06 11:16 53.36406 8.65925 29412 ft 429 kts 244°
2026-05-06 11:16 53.35198 8.61343 29839 ft 431 kts 244°
2026-05-06 11:16 53.33978 8.56743 30199 ft 434 kts 244°
2026-05-06 11:17 53.32751 8.52129 30530 ft 435 kts 244°
2026-05-06 11:17 53.31517 8.47496 30854 ft 437 kts 244°
2026-05-06 11:17 53.30278 8.42845 31192 ft 439 kts 243°
2026-05-06 11:17 53.29033 8.38178 31515 ft 440 kts 243°
2026-05-06 11:18 53.27781 8.33496 31896 ft 440 kts 243°
2026-05-06 11:18 53.26534 8.28836 32361 ft 438 kts 243°
2026-05-06 11:18 53.25291 8.24195 32827 ft 436 kts 243°
2026-05-06 11:18 53.24051 8.19577 33302 ft 435 kts 243°
2026-05-06 11:19 53.22815 8.14984 33780 ft 433 kts 242°
2026-05-06 11:19 53.21581 8.10417 34188 ft 431 kts 242°
2026-05-06 11:19 53.20350 8.05869 34567 ft 430 kts 243°
2026-05-06 11:19 53.19116 8.01329 34901 ft 430 kts 243°
2026-05-06 11:20 53.17879 7.96783 35211 ft 429 kts 243°
2026-05-06 11:20 53.16645 7.92256 35537 ft 429 kts 243°
2026-05-06 11:20 53.15408 7.87733 35856 ft 429 kts 243°
2026-05-06 11:20 53.14171 7.83213 36162 ft 428 kts 243°
2026-05-06 11:21 53.12936 7.78707 36464 ft 428 kts 243°
2026-05-06 11:21 53.11719 7.74258 36756 ft 428 kts 243°
2026-05-06 11:21 53.10485 7.69749 37049 ft 427 kts 243°
2026-05-06 11:21 53.09250 7.65254 37337 ft 427 kts 244°
2026-05-06 11:22 53.08013 7.60767 37607 ft 428 kts 244°
2026-05-06 11:22 53.06767 7.56262 37823 ft 428 kts 244°
2026-05-06 11:22 53.05521 7.51769 37886 ft 428 kts 244°
2026-05-06 11:23 53.03026 7.42795 37877 ft 428 kts 244°
2026-05-06 11:23 53.00523 7.33820 37878 ft 428 kts 243°
2026-05-06 11:24 52.98010 7.24853 37881 ft 428 kts 243°
2026-05-06 11:24 52.95513 7.15969 37877 ft 428 kts 243°
2026-05-06 11:25 52.92990 7.07037 37890 ft 428 kts 243°
2026-05-06 11:25 52.90454 6.98105 37890 ft 428 kts 243°
2026-05-06 11:26 52.87919 6.89172 37891 ft 428 kts 243°
2026-05-06 11:26 52.85808 6.81763 37894 ft 428 kts 243°
2026-05-06 11:27 52.83260 6.72844 37892 ft 429 kts 243°
2026-05-06 11:27 52.80703 6.63947 37887 ft 429 kts 243°
2026-05-06 11:28 52.78138 6.55059 37897 ft 429 kts 243°
2026-05-06 11:28 52.75558 6.46181 37891 ft 429 kts 243°
2026-05-06 11:29 52.72977 6.37313 37893 ft 429 kts 243°
2026-05-06 11:29 52.70396 6.28446 37893 ft 429 kts 243°
2026-05-06 11:30 52.67807 6.19575 37896 ft 429 kts 243°
2026-05-06 11:30 52.65209 6.10740 37895 ft 429 kts 243°
2026-05-06 11:31 52.62594 6.01908 37899 ft 429 kts 243°
2026-05-06 11:31 52.59980 5.93089 37893 ft 429 kts 243°
2026-05-06 11:32 52.57378 5.84327 37893 ft 429 kts 243°
2026-05-06 11:32 52.54749 5.75513 37901 ft 429 kts 243°
2026-05-06 11:33 52.52091 5.66654 37897 ft 430 kts 243°
2026-05-06 11:33 52.49463 5.57915 37900 ft 430 kts 243°
2026-05-06 11:34 52.46825 5.49125 37900 ft 430 kts 243°
2026-05-06 11:34 52.44173 5.40339 37908 ft 430 kts 243°
2026-05-06 11:35 52.41505 5.31568 37904 ft 430 kts 242°
2026-05-06 11:35 52.38827 5.22813 37901 ft 430 kts 242°
2026-05-06 11:36 52.36154 5.14061 37893 ft 430 kts 242°
2026-05-06 11:36 52.33466 5.05325 37903 ft 430 kts 242°
2026-05-06 11:37 52.30766 4.96587 37897 ft 430 kts 242°
2026-05-06 11:37 52.28067 4.87865 37914 ft 430 kts 242°
2026-05-06 11:38 52.25369 4.79144 37913 ft 430 kts 242°
2026-05-06 11:38 52.22658 4.70444 37908 ft 430 kts 242°
2026-05-06 11:39 52.19936 4.61759 37900 ft 430 kts 242°
2026-05-06 11:39 52.17226 4.53134 37883 ft 430 kts 242°
2026-05-06 11:40 52.14498 4.44464 37898 ft 430 kts 242°
2026-05-06 11:40 52.11762 4.35805 37897 ft 430 kts 242°
2026-05-06 11:41 52.09016 4.27155 37902 ft 430 kts 242°
2026-05-06 11:41 52.06265 4.18513 37906 ft 430 kts 242°
2026-05-06 11:42 52.03512 4.09884 37915 ft 430 kts 242°
2026-05-06 11:42 52.00750 4.01268 37908 ft 430 kts 242°
2026-05-06 11:43 51.97983 3.92655 37903 ft 430 kts 242°
2026-05-06 11:43 51.95204 3.84052 37921 ft 431 kts 242°
2026-05-06 11:44 51.91016 3.71170 37919 ft 431 kts 241°
2026-05-06 11:44 51.88233 3.62636 37928 ft 431 kts 241°
2026-05-06 11:45 51.85437 3.54053 37930 ft 431 kts 241°
2026-05-06 11:45 51.82630 3.45479 37938 ft 431 kts 241°
2026-05-06 11:46 51.79815 3.36922 37942 ft 431 kts 241°
2026-05-06 11:46 51.76992 3.28384 37955 ft 431 kts 241°
2026-05-06 11:47 51.74200 3.19813 37939 ft 431 kts 245°
2026-05-06 11:47 51.72658 3.10534 36941 ft 434 kts 261°
2026-05-06 11:48 51.72246 3.05693 36106 ft 437 kts 261°
2026-05-06 11:48 51.71845 3.00829 35271 ft 439 kts 262°
2026-05-06 11:48 51.71441 2.95934 34397 ft 440 kts 261°
2026-05-06 11:48 51.71029 2.91028 33541 ft 442 kts 261°
2026-05-06 11:49 51.70610 2.86184 33018 ft 435 kts 261°
2026-05-06 11:49 51.70184 2.81378 32415 ft 430 kts 261°
2026-05-06 11:49 51.69761 2.76644 31825 ft 425 kts 261°
2026-05-06 11:49 51.69341 2.71961 31258 ft 419 kts 260°
2026-05-06 11:50 51.68925 2.67340 30698 ft 414 kts 261°
2026-05-06 11:50 51.68512 2.62762 30140 ft 410 kts 260°
2026-05-06 11:50 51.68104 2.58241 29529 ft 406 kts 260°
2026-05-06 11:50 51.67700 2.53770 28989 ft 400 kts 260°
2026-05-06 11:51 51.67302 2.49372 28458 ft 394 kts 261°
2026-05-06 11:51 51.66910 2.45027 27935 ft 389 kts 261°
2026-05-06 11:51 51.66523 2.40743 27430 ft 384 kts 261°
2026-05-06 11:51 51.66140 2.36521 26932 ft 379 kts 260°
2026-05-06 11:52 51.65760 2.32350 26448 ft 374 kts 260°
2026-05-06 11:52 51.65378 2.28232 25986 ft 369 kts 260°
2026-05-06 11:52 51.64996 2.24169 25525 ft 365 kts 261°
2026-05-06 11:52 51.64622 2.20209 25083 ft 360 kts 260°
2026-05-06 11:53 51.64245 2.16243 24641 ft 356 kts 260°
2026-05-06 11:53 51.63873 2.12319 24192 ft 353 kts 260°
2026-05-06 11:53 51.63507 2.08428 23745 ft 350 kts 260°
2026-05-06 11:53 51.63149 2.04569 23241 ft 348 kts 261°
2026-05-06 11:54 51.62797 2.00740 22763 ft 344 kts 261°
2026-05-06 11:54 51.62449 1.96950 22312 ft 340 kts 261°
2026-05-06 11:54 51.62105 1.93200 21854 ft 338 kts 261°
2026-05-06 11:54 51.61761 1.89474 21397 ft 335 kts 261°
2026-05-06 11:55 51.61247 1.85843 20933 ft 332 kts 251°
2026-05-06 11:55 51.60304 1.82464 20470 ft 331 kts 240°
2026-05-06 11:55 51.58975 1.79456 19996 ft 330 kts 230°
2026-05-06 11:55 51.57467 1.76733 19541 ft 329 kts 229°
2026-05-06 11:56 51.55932 1.73961 19086 ft 327 kts 229°
2026-05-06 11:56 51.54440 1.71258 18650 ft 327 kts 230°
2026-05-06 11:56 51.52934 1.68528 18205 ft 326 kts 230°
2026-05-06 11:56 51.51432 1.65805 17712 ft 325 kts 230°
2026-05-06 11:57 51.49946 1.63080 17267 ft 323 kts 233°
2026-05-06 11:57 51.48727 1.60086 16839 ft 320 kts 244°
2026-05-06 11:57 51.47885 1.56803 16418 ft 318 kts 251°
2026-05-06 11:57 51.47135 1.53478 15998 ft 316 kts 251°
2026-05-06 11:58 51.46378 1.50168 15570 ft 316 kts 250°
2026-05-06 11:58 51.45619 1.46876 15153 ft 315 kts 250°
2026-05-06 11:58 51.44857 1.43586 14736 ft 314 kts 250°
2026-05-06 11:58 51.44048 1.40335 14313 ft 315 kts 245°
2026-05-06 11:59 51.42862 1.37385 13889 ft 316 kts 231°
2026-05-06 11:59 51.41273 1.34928 13742 ft 321 kts 219°
2026-05-06 11:59 51.39469 1.32787 13577 ft 323 kts 218°
2026-05-06 11:59 51.37661 1.30644 13400 ft 323 kts 219°
2026-05-06 12:00 51.35860 1.28506 13233 ft 322 kts 219°
2026-05-06 12:00 51.34063 1.26375 13066 ft 321 kts 218°
2026-05-06 12:00 51.32266 1.24246 12884 ft 320 kts 218°
2026-05-06 12:00 51.30478 1.22136 12712 ft 320 kts 218°
2026-05-06 12:01 51.28692 1.20032 12544 ft 319 kts 219°
2026-05-06 12:01 51.26907 1.17932 12376 ft 318 kts 219°
2026-05-06 12:01 51.25130 1.15843 12215 ft 318 kts 218°
2026-05-06 12:01 51.23349 1.13750 12045 ft 318 kts 218°
2026-05-06 12:02 51.21590 1.11685 11882 ft 317 kts 217°
2026-05-06 12:02 51.19814 1.09601 11711 ft 317 kts 219°
2026-05-06 12:02 51.18039 1.07522 11543 ft 317 kts 217°
2026-05-06 12:02 51.16266 1.05450 11376 ft 316 kts 218°
2026-05-06 12:03 51.14496 1.03381 11205 ft 315 kts 218°
2026-05-06 12:03 51.12724 1.01315 11044 ft 315 kts 219°
2026-05-06 12:03 51.10951 0.99250 10872 ft 315 kts 218°
2026-05-06 12:03 51.09185 0.97189 10707 ft 315 kts 219°
2026-05-06 12:04 51.07426 0.95119 10546 ft 314 kts 220°
2026-05-06 12:04 51.05877 0.92684 10376 ft 312 kts 234°
2026-05-06 12:04 51.04725 0.89791 10196 ft 307 kts 248°
2026-05-06 12:04 51.03834 0.86774 10054 ft 296 kts 246°
2026-05-06 12:05 51.02963 0.83850 9898 ft 290 kts 246°
2026-05-06 12:05 51.02099 0.80957 9799 ft 290 kts 247°
2026-05-06 12:05 51.01245 0.78104 9652 ft 289 kts 246°
2026-05-06 12:05 51.00381 0.75227 9502 ft 289 kts 247°
2026-05-06 12:06 50.99516 0.72352 9354 ft 288 kts 247°
2026-05-06 12:06 50.98656 0.69487 9186 ft 287 kts 248°
2026-05-06 12:06 50.97798 0.66626 9046 ft 286 kts 246°
2026-05-06 12:06 50.96941 0.63776 8886 ft 286 kts 248°
2026-05-06 12:07 50.96085 0.60925 8733 ft 286 kts 248°
2026-05-06 12:07 50.95229 0.58077 8575 ft 286 kts 246°
2026-05-06 12:07 50.94373 0.55241 8424 ft 285 kts 246°
2026-05-06 12:07 50.93515 0.52411 8268 ft 284 kts 247°
2026-05-06 12:08 50.92659 0.49590 8104 ft 284 kts 246°
2026-05-06 12:08 50.91909 0.46714 7955 ft 281 kts 257°
2026-05-06 12:08 50.91646 0.43696 7806 ft 273 kts 274°
2026-05-06 12:08 50.91882 0.40756 7661 ft 267 kts 288°
2026-05-06 12:09 50.92404 0.37947 7523 ft 266 kts 289°
2026-05-06 12:09 50.92924 0.35137 7376 ft 265 kts 289°
2026-05-06 12:09 50.93422 0.32411 7242 ft 255 kts 289°
2026-05-06 12:09 50.93899 0.29776 7122 ft 242 kts 289°
2026-05-06 12:10 50.94368 0.27260 6900 ft 234 kts 293°
2026-05-06 12:10 50.95114 0.25063 6913 ft 226 kts 309°
2026-05-06 12:10 50.96090 0.23095 6827 ft 227 kts 310°
2026-05-06 12:10 50.97062 0.21128 6712 ft 226 kts 310°
2026-05-06 12:11 50.98029 0.19159 6610 ft 226 kts 310°
2026-05-06 12:11 50.98991 0.17177 6507 ft 232 kts 307°
2026-05-06 12:11 50.99627 0.14669 6379 ft 258 kts 280°
2026-05-06 12:11 50.99676 0.11779 6244 ft 264 kts 272°
2026-05-06 12:12 50.99619 0.08875 5885 ft 263 kts 271°
2026-05-06 12:12 50.99553 0.05976 5389 ft 263 kts 271°
2026-05-06 12:12 50.99484 0.03085 4924 ft 262 kts 271°
2026-05-06 12:12 50.99419 0.00185 4439 ft 263 kts 271°
2026-05-06 12:13 50.99376 -0.01725 4168 ft 260 kts 271°
2026-05-06 12:13 50.99276 -0.05511 3998 ft 259 kts 271°
2026-05-06 12:13 50.99194 -0.08368 4000 ft 260 kts 271°
2026-05-06 12:13 50.99121 -0.11243 4000 ft 260 kts 271°
2026-05-06 12:14 50.99045 -0.14112 4001 ft 260 kts 271°
2026-05-06 12:14 50.98965 -0.16972 4003 ft 259 kts 271°
2026-05-06 12:14 50.98890 -0.19837 4002 ft 260 kts 271°
2026-05-06 12:14 50.98842 -0.21738 4001 ft 260 kts 271°
2026-05-06 12:15 50.98768 -0.24642 3978 ft 260 kts 271°
2026-05-06 12:15 50.98696 -0.27509 3982 ft 260 kts 271°
2026-05-06 12:15 50.98626 -0.30347 3980 ft 261 kts 271°
2026-05-06 12:15 50.98551 -0.33201 3977 ft 247 kts 271°
2026-05-06 12:16 50.98474 -0.35845 3978 ft 241 kts 271°
2026-05-06 12:16 50.98393 -0.38496 3906 ft 238 kts 271°
2026-05-06 12:16 50.98312 -0.41153 3523 ft 238 kts 271°
2026-05-06 12:16 50.98247 -0.43735 3142 ft 237 kts 271°
2026-05-06 12:17 50.98467 -0.46264 2979 ft 230 kts 297°
2026-05-06 12:17 50.99487 -0.48177 2988 ft 224 kts 330°
2026-05-06 12:17 51.00921 -0.49096 2989 ft 222 kts 345°
2026-05-06 12:17 51.02371 -0.49746 2979 ft 209 kts 346°
2026-05-06 12:18 51.03710 -0.50319 2992 ft 196 kts 346°
2026-05-06 12:18 51.05012 -0.50773 2988 ft 184 kts
2026-05-06 12:18 51.06141 -0.50150 3009 ft 171 kts 38°
2026-05-06 12:18 51.06898 -0.48796 3001 ft 155 kts 49°
2026-05-06 12:19 51.07491 -0.47479 3011 ft 139 kts 50°
2026-05-06 12:19 51.08041 -0.46230 3016 ft 136 kts 52°
2026-05-06 12:19 51.08573 -0.45042 3035 ft 129 kts 50°
2026-05-06 12:19 51.09104 -0.43901 2955 ft 126 kts 49°
2026-05-06 12:20 51.09612 -0.42767 2879 ft 127 kts 50°
2026-05-06 12:20 51.10137 -0.41635 2831 ft 127 kts 50°
2026-05-06 12:20 51.10672 -0.40517 2708 ft 126 kts 47°
2026-05-06 12:20 51.11181 -0.39386 2594 ft 126 kts 51°
2026-05-06 12:21 51.11644 -0.38194 2498 ft 127 kts 56°
2026-05-06 12:21 51.12024 -0.36922 2407 ft 129 kts 64°
2026-05-06 12:21 51.12308 -0.35565 2224 ft 130 kts 66°
2026-05-06 12:21 51.12599 -0.34069 2113 ft 152 kts 69°
2026-05-06 12:22 51.12892 -0.32434 1866 ft 157 kts 69°
2026-05-06 12:22 51.13165 -0.30741 1582 ft 159 kts 72°
2026-05-06 12:22 51.13390 -0.28991 1296 ft 159 kts 72°
2026-05-06 12:22 51.13587 -0.27298 965 ft 147 kts 73°
2026-05-06 12:23 51.13826 -0.25816 789 ft 133 kts 69°
2026-05-06 12:23 51.14068 -0.24382 670 ft 150 kts 73°
2026-05-06 12:23 51.14298 -0.22782 519 ft 149 kts 72°
2026-05-06 12:23 51.14521 -0.21209 295 ft 143 kts 75°
2026-05-06 12:24 51.14714 -0.19768 214 ft 117 kts 76°
2026-05-06 12:24 51.14821 -0.18971 211 ft 30 kts 78°
2026-05-06 12:24 51.14859 -0.18706 211 ft 34 kts 74°
2026-05-06 12:24 51.14916 -0.18545 204 ft 0 kts 44°
2026-05-06 12:25 51.14941 -0.18504 207 ft 12 kts 47°
2026-05-06 12:25 51.14999 -0.18397 209 ft 12 kts 50°
2026-05-06 12:25 51.15028 -0.18337 206 ft 4 kts 53°
2026-05-06 12:25 51.15045 -0.18304 210 ft 2 kts 50°
2026-05-06 12:26 51.15048 -0.18298 210 ft 0 kts 50°
2026-05-06 12:26 51.15056 -0.18282 209 ft 10 kts 50°
2026-05-06 12:26 51.15133 -0.18189 207 ft 15 kts
2026-05-06 12:26 51.15240 -0.18226 204 ft 17 kts 351°
2026-05-06 12:27 51.15336 -0.18257 214 ft 13 kts 347°
2026-05-06 12:27 51.15387 -0.18275 214 ft 0 kts 348°
2026-05-06 12:27 51.15393 -0.18276 215 ft 5 kts 354°
2026-05-06 12:27 51.15433 -0.18242 213 ft 8 kts 56°
2026-05-06 12:28 51.15451 -0.18139 211 ft 12 kts 76°
2026-05-06 12:28 51.15471 -0.17996 204 ft 15 kts 77°
2026-05-06 12:28 51.15483 -0.17906 204 ft 3 kts 78°
2026-05-06 12:28 51.15487 -0.17879 204 ft 2 kts 78°
2026-05-06 12:29 51.15491 -0.17847 209 ft 3 kts 76°
2026-05-06 12:29 51.15499 -0.17792 204 ft 6 kts 77°
2026-05-06 12:29 51.15517 -0.17745 216 ft 5 kts 24°
2026-05-06 12:29 51.15552 -0.17749 211 ft 5 kts 349°
2026-05-06 12:30 51.15568 -0.17754 208 ft 1 kts 348°
2026-05-06 12:30 51.15573 -0.17756 206 ft 0 kts 348°